User: anonymous   Login
Location: Mt. Cuba Astronomical Observatory
(39.8100°N, 75.6300°W)
Time: 12:46:19
(UTC-04:00)
Language:

Cosmos 2058 - Orbit

View from above orbital plane
View from above orbital plane
View from above satellite
View from above satellite

Ground track
Ground track

The orbit data is extracted from the following two-line orbital elements,

1 20465U 90010A   15181.13292937  .00000457  00000-0  37776-4 0  9999
2 20465 082.4894 217.8041 0015760 185.8834 174.2205 14.96514852377905
Epoch (UTC): 30 June 2015 03:11:25
Eccentricity: 0.0015760
inclination: 82.4894°
perigee height: 567 km
apogee height: 588 km
right ascension of ascending node: 217.8041°
argument of perigee: 185.8834°
revolutions per day: 14.96514852
mean anomaly at epoch: 174.2205°
orbit number at epoch: 37790

The dashed part of the orbit path shows where the satellite is in the earth's shadow,  

DLR